Home   Weather   Medina   Past weeks
Flag for Saudi Arabia

Past Weather in Medina, Saudi Arabia — Yesterday and Last 2 Weeks

Now
93 °F

Clear.


Feels Like: 89 °F
Forecast: 107 / 80 °F
Wind: 7 mph from Southwest

Location: Madinah

Current Time: Jun 16, 2019 at 12:04:40 am

Latest Report: Jun 15, 2019 at 11:00 pm


Visibility: 10 mi

Pressure: 29.89 "Hg (27.94 "Hg at 606m altitude)

Humidity: 16%

Dew Point: 41 °F

Location of MedinaLocation

Past Weather in Medina — Graph

°F

Medina Temperature Yesterday

Maximum temperature yesterday: 104 °F (at 3:00 pm)
Minimum temperature yesterday: 86 °F (at 5:00 am)
Average temperature yesterday: 95 °F

High & Low Weather Summary for the Past Weeks

 TemperatureHumidityPressure
High120 °F (Jun 10, 9:00 pm)29% (Jun 9, 5:00 am)30.01 "Hg (Jun 9, 5:00 am)
Low86 °F (Jun 1, 6:00 am)5% (Jun 6, 1:00 pm)29.74 "Hg (Jun 13, 5:00 pm)
Average99 °F11%29.87 "Hg
* Reported May 31 11:00 pm — Jun 15 11:00 pm, Medina. Weather by CustomWeather, © 2019

Note: Actual official high and low records may vary slightly from our data, if they occured in-between our weather recording intervals... More about our weather records

Advertising

Medina Weather History for the Previous 24 Hours

Scroll right to see more
 ConditionsComfort  
Time TempWeatherWind HumidityBarometerVisibility
11:00 pm
Sat, Jun 15
93 °FClear.7 mph16%29.89 "Hg10 mi
10:00 pm93 °FClear.10 mph15%29.86 "Hg10 mi
9:00 pm95 °FClear.14 mph12%29.86 "Hg10 mi
8:00 pm99 °FClear.13 mph8%29.83 "Hg10 mi
7:00 pm100 °FSunny.12 mph7%29.80 "Hg10 mi
6:00 pm102 °FSunny.20 mph7%29.80 "Hg10 mi
5:00 pm104 °FSunny.9 mph6%29.77 "Hg10 mi
4:00 pm104 °FSunny.13 mph6%29.80 "Hg10 mi
3:00 pm104 °FSunny.14 mph6%29.80 "Hg10 mi
2:00 pm100 °FSunny.9 mph7%29.83 "Hg10 mi
1:00 pm99 °FSunny.2 mph8%29.83 "Hg10 mi
12:00 pm99 °FSunny.5 mph8%29.89 "Hg10 mi
10:00 am93 °FSunny.2 mph11%29.89 "Hg10 mi
9:00 am91 °FSunny.5 mph11%29.89 "Hg10 mi
8:00 am90 °FSunny.8 mph12%29.86 "Hg10 mi
7:00 am88 °FSunny.6 mph16%29.86 "Hg10 mi
6:00 am86 °FSunny.3 mph20%29.83 "Hg10 mi
5:00 am86 °FClear.6 mph22%29.83 "Hg10 mi
4:00 am88 °FClear.6 mph19%29.83 "Hg10 mi
3:00 am90 °FClear.6 mph18%29.80 "Hg10 mi
2:00 am91 °FClear.6 mph20%29.80 "Hg10 mi
1:00 am91 °FClear.7 mph21%29.83 "Hg10 mi
12:00 am91 °FClear.3 mph21%29.83 "Hg10 mi
Weather by CustomWeather, © 2019

See weather overview